EW4676 Weather Reports


Display with metric or nautical units.
time (UTC)temp
F
wind
direction
speed
MPH
gust
MPH
rain 1hr
in
rain 24hr
in
rain mn
in
humidity
%
barometer
mb
20260508102522 60 130 0.0 2.0 0.00 0.00 0.00 78 1013.9
20260508102012 60 130 1.0 2.0 0.00 0.00 0.00 78 1013.6
20260508101500 60 131 0.0 2.0 0.00 0.00 0.00 78 1013.3
20260508100950 60 130 0.0 2.0 0.00 0.00 0.00 78 1013.3
20260508100439 60 126 0.0 0.0 0.00 0.00 0.00 78 1013.5
20260508095929 60 124 0.0 0.0 0.00 0.00 0.00 78 1013.6
20260508095420 60 125 0.0 0.0 0.00 0.00 0.00 77 1013.7
20260508094910 60 123 0.0 0.0 0.00 0.00 0.00 77 1013.6
20260508094352 60 123 0.0 0.0 0.00 0.00 0.00 77 1013.8
20260508093854 60 123 0.0 0.0 0.00 0.00 0.00 77 1013.8
20260508093344 61 123 0.0 0.0 0.00 0.00 0.00 77 1013.8
20260508092834 61 122 0.0 2.0 0.00 0.00 0.00 76 1013.8
20260508092324 61 122 0.0 2.0 0.00 0.00 0.00 76 1013.7
20260508092316 61 122 1.0 2.0 0.00 0.00 0.00 76 1013.7
20260508091805 61 118 0.0 2.0 0.00 0.00 0.00 76 1013.8
20260508090752 61 118 1.0 4.0 0.00 0.00 0.00 76 1013.9
20260508090242 61 120 1.0 4.0 0.00 0.00 0.00 76 1013.6
20260508085732 61 139 0.0 4.0 0.00 0.00 0.00 76 1013.6
20260508085222 61 145 0.0 4.0 0.00 0.00 0.00 76 1013.9
20260508084710 61 144 1.0 4.0 0.00 0.00 0.00 76 1013.9
20260508084200 61 144 3.0 8.0 0.00 0.00 0.00 76 1013.9
20260508083650 61 162 3.0 8.0 0.00 0.00 0.00 76 1013.7
20260508083141 61 145 1.0 5.0 0.00 0.00 0.00 76 1013.7
20260508082631 61 188 0.0 0.0 0.00 0.00 0.00 76 1013.9
20260508082120 61 189 0.0 0.0 0.00 0.00 0.00 76 1014.0
20260508082103 61 191 0.0 0.0 0.00 0.00 0.00 75 1014.2
20260508081707 61 190 0.0 0.0 0.00 0.00 0.00 75 1014.1
20260508081051 62 192 0.0 0.0 0.00 0.00 0.00 75 1014.4
20260508080040 62 192 0.0 0.0 0.00 0.00 0.00 75 1014.6
20260508075530 62 191 0.0 0.0 0.00 0.00 0.00 75 1014.8
20260508075020 62 191 0.0 0.0 0.00 0.00 0.00 75 1015.0
20260508074510 62 189 0.0 0.0 0.00 0.00 0.00 74 1015.0
20260508074501 62 188 0.0 0.0 0.00 0.00 0.00 74 1015.1
20260508073451 62 188 0.0 0.0 0.00 0.00 0.00 74 1015.1
20260508072940 62 188 0.0 0.0 0.00 0.00 0.00 74 1015.0
20260508072432 62 188 0.0 0.0 0.00 0.00 0.00 74 1015.0
20260508071926 62 188 0.0 0.0 0.00 0.00 0.00 74 1014.9
20260508071422 62 179 0.0 0.0 0.00 0.00 0.00 74 1015.0
20260508070916 62 177 0.0 0.0 0.00 0.00 0.00 73 1015.0
20260508070406 62 178 0.0 0.0 0.00 0.00 0.00 73 1014.9
20260508065905 62 178 0.0 0.0 0.00 0.00 0.00 73 1014.9
20260508065401 62 177 0.0 0.0 0.00 0.00 0.00 72 1014.9
20260508065355 62 178 0.0 0.0 0.00 0.00 0.00 72 1014.9
20260508064849 62 177 0.0 0.0 0.00 0.00 0.00 72 1014.7
20260508063853 62 178 0.0 0.0 0.00 0.00 0.00 73 1014.8
20260508063848 62 178 0.0 0.0 0.00 0.00 0.00 72 1015.0
20260508062849 62 179 0.0 0.0 0.00 0.00 0.00 73 1015.0
20260508062845 62 180 0.0 0.0 0.00 0.00 0.00 73 1015.2
20260508061844 62 182 0.0 0.0 0.00 0.00 0.00 73 1015.1
20260508061340 62 186 0.0 0.0 0.00 0.00 0.00 72 1015.2
20260508060834 62 178 0.0 3.0 0.00 0.00 0.00 72 1015.3
20260508060326 62 177 0.0 3.0 0.00 0.00 0.00 72 1015.3
20260508055816 62 176 1.0 3.0 0.00 0.00 0.00 72 1015.4
20260508055403 62 172 1.0 3.0 0.00 0.00 0.00 72 1015.4
20260508054902 62 172 0.0 3.0 0.00 0.00 0.00 72 1015.4
20260508053749 62 172 1.0 3.0 0.00 0.00 0.00 71 1015.4
20260508053238 62 172 1.0 4.0 0.00 0.00 0.00 71 1015.4
20260508053230 62 153 1.0 4.0 0.00 0.00 0.00 71 1015.4
20260508052834 62 149 1.0 4.0 0.00 0.00 0.00 71 1015.5
20260508051723 62 154 1.0 4.0 0.00 0.00 0.00 70 1015.5
20260508051216 62 155 2.0 4.0 0.00 0.00 0.00 70 1015.5
20260508050711 62 151 1.0 4.0 0.00 0.00 0.00 70 1015.4
20260508050202 62 135 0.0 3.0 0.00 0.00 0.00 69 1015.3
20260508045654 62 135 0.0 0.0 0.00 0.00 0.00 69 1015.5
20260508045645 62 135 0.0 0.0 0.00 0.00 0.00 69 1015.5
20260508044634 62 135 0.0 0.0 0.00 0.00 0.00 69 1015.5
20260508044116 62 135 0.0 0.0 0.00 0.00 0.00 69 1015.4
20260508043606 62 135 0.0 0.0 0.00 0.00 0.00 68 1015.3
20260508043056 62 135 0.0 0.0 0.00 0.00 0.00 68 1015.3
20260508043039 62 135 0.0 0.0 0.00 0.00 0.00 68 1015.4
20260508042028 62 135 0.0 0.0 0.00 0.00 0.00 67 1015.5
20260508041518 63 136 0.0 0.0 0.00 0.00 0.00 67 1015.5
20260508041008 63 138 0.0 0.0 0.00 0.00 0.00 67 1015.5
20260508040959 63 139 0.0 0.0 0.00 0.00 0.00 67 1015.3
20260508035948 63 141 0.0 0.0 0.00 0.00 0.00 66 1015.4
20260508035438 63 140 0.0 2.0 0.00 0.00 0.00 66 1015.3
20260508034928 63 139 0.0 2.0 0.00 0.00 0.00 66 1015.1
20260508034419 63 143 0.0 2.0 0.00 0.00 0.00 66 1015.0
20260508033907 63 141 0.0 1.0 0.00 0.00 0.00 66 1015.2
20260508033351 63 141 0.0 0.0 0.00 0.00 0.00 65 1015.0
20260508032840 63 140 0.0 0.0 0.00 0.00 0.00 65 1015.0
20260508032331 63 140 0.0 0.0 0.00 0.00 0.00 65 1015.1
20260508031820 63 140 0.0 2.0 0.00 0.00 0.00 64 1014.9
20260508031319 63 141 0.0 1.0 0.00 0.00 0.00 64 1014.7
20260508030808 64 147 0.0 2.0 0.00 0.00 0.00 64 1014.7
20260508030258 64 148 0.0 1.0 0.00 0.00 0.00 64 1014.7
20260508025748 64 148 0.0 1.0 0.00 0.00 0.00 63 1014.8
20260508025238 64 149 0.0 3.0 0.00 0.00 0.00 62 1014.8
20260508024729 64 149 0.0 3.0 0.00 0.00 0.00 62 1014.8
20260508024218 64 150 1.0 3.0 0.00 0.00 0.00 62 1014.6
20260508023700 64 148 1.0 3.0 0.00 0.00 0.00 62 1014.7
20260508023149 64 147 1.0 4.0 0.00 0.00 0.00 61 1014.6
20260508022640 64 153 1.0 4.0 0.00 0.00 0.00 61 1014.6
20260508022130 65 164 1.0 3.0 0.00 0.00 0.00 61 1014.7
20260508021620 65 166 1.0 3.0 0.00 0.00 0.00 61 1014.7
20260508021611 65 181 0.0 2.0 0.00 0.00 0.00 61 1014.6
20260508020600 65 182 0.0 2.0 0.00 0.00 0.00 60 1014.4
20260508020050 65 182 0.0 2.0 0.00 0.00 0.00 60 1014.4
20260508020040 65 182 1.0 4.0 0.00 0.00 0.00 59 1014.5
20260508015031 65 182 1.0 4.0 0.00 0.00 0.00 59 1014.6
20260508014520 65 182 1.0 4.0 0.00 0.00 0.00 59 1014.6
20260508014511 66 159 2.0 5.0 0.00 0.00 0.00 59 1014.5
20260508013501 66 151 2.0 5.0 0.00 0.00 0.00 59 1014.6
20260508012945 66 137 2.0 6.0 0.00 0.00 0.00 58 1014.4
20260508012439 66 143 3.0 6.0 0.00 0.00 0.00 58 1014.4
20260508011939 66 161 3.0 7.0 0.00 0.00 0.00 58 1014.4
20260508011435 66 159 2.0 7.0 0.00 0.00 0.00 58 1014.5
20260508010933 66 146 2.0 5.0 0.00 0.00 0.00 58 1014.4
20260508010434 66 157 2.0 5.0 0.00 0.00 0.00 58 1014.4
20260508005927 67 158 2.0 5.0 0.00 0.00 0.00 58 1014.5
20260508005414 67 164 1.0 4.0 0.00 0.00 0.00 59 1014.6
20260508004905 67 168 1.0 4.0 0.00 0.00 0.00 59 1014.6
20260508004354 67 178 1.0 3.0 0.00 0.00 0.00 58 1014.5
20260508003844 67 179 1.0 3.0 0.00 0.00 0.00 58 1014.4
20260508003333 67 179 1.0 4.0 0.00 0.00 0.00 58 1014.4
20260508003325 67 186 2.0 4.0 0.00 0.00 0.00 58 1014.4
20260508002307 67 182 2.0 6.0 0.00 0.00 0.00 58 1014.6
20260508001806 67 156 2.0 6.0 0.00 0.00 0.00 58 1014.6
20260508001248 67 217 2.0 4.0 0.00 0.00 0.00 58 1014.6
20260508000740 68 213 1.0 4.0 0.00 0.00 0.00 58 1014.7
20260508000235 68 207 1.0 4.0 0.00 0.00 0.00 57 1014.9
20260507235730 68 205 1.0 7.0 0.00 0.00 0.00 57 1014.6
20260507235219 68 220 2.0 7.0 0.00 0.00 0.00 58 1014.7
20260507234712 68 222 2.0 6.0 0.00 0.00 0.00 59 1014.8
20260507234206 68 220 2.0 7.0 0.00 0.00 0.00 58 1014.8
20260507233700 68 220 3.0 9.0 0.00 0.00 0.00 58 1014.7
20260507233147 68 161 4.0 9.0 0.00 0.00 0.00 58 1014.7
20260507232648 68 173 4.0 11.0 0.00 0.00 0.00 57 1014.7
20260507232130 68 202 4.0 11.0 0.00 0.00 0.00 57 1014.8
20260507231628 68 211 3.0 9.0 0.00 0.00 0.00 57 1014.9
20260507231126 68 204 3.0 10.0 0.00 0.00 0.00 57 1014.7
20260507230618 68 191 2.0 10.0 0.00 0.00 0.00 57 1014.9
20260507230110 68 226 2.0 8.0 0.00 0.00 0.00 57 1014.9
20260507225604 68 158 2.0 8.0 0.00 0.00 0.00 57 1014.9
20260507225105 69 195 3.0 8.0 0.00 0.00 0.00 56 1014.8
20260507224555 69 177 3.0 10.0 0.00 0.01 0.00 56 1014.9
20260507224053 69 166 3.0 7.0 0.00 0.04 0.00 57 1015.0
20260507223549 69 130 4.0 9.0 0.00 0.08 0.00 55 1015.0
20260507223543 69 216 4.0 9.0 0.00 0.08 0.00 54 1015.0
20260507222532 69 186 3.0 8.0 0.00 0.08 0.00 54 1015.0
20260507222525 70 185 1.0 8.0 0.00 0.08 0.00 53 1015.0
20260507221516 70 198 0.0 4.0 0.00 0.08 0.00 52 1015.0
20260507221509 70 146 1.0 4.0 0.00 0.08 0.00 54 1015.1
20260507221113 70 146 0.0 4.0 0.00 0.08 0.00 53 1015.0
20260507220000 70 143 1.0 4.0 0.00 0.08 0.00 55 1015.0
20260507215950 70 327 0.0 2.0 0.00 0.08 0.00 52 1015.0
20260507215440 71 327 0.0 1.0 0.00 0.08 0.00 56 1015.1
20260507214934 71 327 1.0 3.0 0.00 0.08 0.00 53 1015.1
20260507214422 70 278 1.0 3.0 0.00 0.08 0.00 55 1015.1
20260507214025 71 326 1.0 3.0 0.00 0.08 0.00 49 1015.1
20260507212909 71 17 0.0 2.0 0.00 0.08 0.00 51 1015.3
20260507212901 71 17 0.0 1.0 0.00 0.08 0.00 53 1015.5
20260507211853 70 17 0.0 1.0 0.00 0.08 0.00 55 1015.6
20260507211343 70 17 0.0 2.0 0.00 0.08 0.00 52 1015.8
20260507210833 71 17 0.0 2.0 0.00 0.08 0.00 49 1015.8
20260507210325 70 17 1.0 3.0 0.00 0.08 0.00 50 1015.9
20260507205826 70 17 2.0 6.0 0.00 0.08 0.00 51 1016.1
20260507205311 71 17 3.0 6.0 0.00 0.08 0.00 52 1015.8
20260507205302 71 27 2.0 6.0 0.00 0.08 0.00 51 1015.8
20260507204251 71 37 0.0 3.0 0.00 0.08 0.00 52 1015.8
20260507203741 70 346 1.0 3.0 0.00 0.08 0.00 53 1015.7
20260507203232 71 347 2.0 7.0 0.00 0.08 0.00 48 1015.7
20260507203222 71 41 2.0 7.0 0.00 0.08 0.00 48 1015.7
20260507202215 71 53 3.0 8.0 0.00 0.08 0.00 49 1015.6
20260507201700 70 22 3.0 8.0 0.00 0.08 0.00 49 1015.7
20260507201151 70 3 3.0 8.0 0.00 0.08 0.00 48 1015.9
20260507200641 71 351 2.0 7.0 0.00 0.08 0.00 50 1016.1
20260507200131 71 18 4.0 8.0 0.00 0.08 0.00 47 1016.1
20260507195622 71 9 5.0 8.0 0.00 0.08 0.00 48 1016.4
20260507195111 71 23 4.0 8.0 0.00 0.08 0.00 50 1016.4
20260507194602 71 22 2.0 8.0 0.00 0.08 0.00 48 1016.4
20260507194552 71 6 2.0 7.0 0.00 0.08 0.00 47 1016.4
20260507193542 71 58 2.0 7.0 0.00 0.08 0.00 48 1016.6
20260507193031 71 55 1.0 8.0 0.00 0.08 0.00 47 1016.8
20260507192522 70 49 2.0 8.0 0.00 0.08 0.00 47 1016.9
20260507192011 71 48 2.0 8.0 0.00 0.08 0.00 46 1017.0
20260507191500 71 85 2.0 8.0 0.00 0.08 0.00 47 1017.2
20260507190951 71 97 3.0 7.0 0.00 0.08 0.00 45 1017.2
20260507190441 72 66 4.0 12.0 0.00 0.08 0.00 49 1017.2
20260507185931 71 83 4.0 11.0 0.00 0.08 0.00 45 1017.1
20260507185421 71 11 5.0 13.0 0.00 0.08 0.00 48 1017.1
20260507185411 71 74 7.0 13.0 0.00 0.08 0.00 45 1017.0
20260507184401 72 24 7.0 14.0 0.00 0.08 0.00 45 1017.1
20260507183851 72 15 5.0 14.0 0.00 0.08 0.00 46 1017.1
20260507183341 72 18 4.0 10.0 0.00 0.08 0.00 47 1017.1
20260507182831 72 85 6.0 14.0 0.00 0.08 0.00 48 1017.1
20260507182314 72 46 6.0 14.0 0.00 0.08 0.00 48 1017.1
20260507181808 72 73 5.0 10.0 0.00 0.08 0.00 47 1017.3
20260507181803 71 14 5.0 13.0 0.00 0.08 0.00 46 1017.4
20260507180752 71 29 6.0 14.0 0.00 0.08 0.00 52 1017.3
20260507180742 70 8 5.0 14.0 0.00 0.08 0.00 50 1017.3
20260507175731 69 11 5.0 9.0 0.00 0.08 0.00 49 1017.4
20260507175221 69 24 6.0 13.0 0.00 0.08 0.00 51 1017.5
20260507175202 68 33 6.0 15.0 0.00 0.08 0.00 50 1017.6
20260507174152 69 97 6.0 15.0 0.00 0.08 0.00 53 1017.8
20260507173641 69 5 6.0 15.0 0.00 0.08 0.00 52 1017.9
20260507173132 69 19 5.0 15.0 0.00 0.08 0.00 51 1017.9
20260507172619 68 38 5.0 12.0 0.00 0.08 0.00 52 1017.9
20260507172110 68 11 6.0 12.0 0.00 0.08 0.00 52 1018.0
20260507171559 68 31 5.0 11.0 0.00 0.08 0.00 53 1018.2
20260507171050 69 5 4.0 9.0 0.00 0.08 0.00 55 1018.3
20260507170539 68 56 3.0 8.0 0.00 0.08 0.00 53 1018.5
20260507170028 68 78 3.0 8.0 0.00 0.08 0.00 56 1018.6
20260507165517 68 356 3.0 8.0 0.00 0.08 0.00 57 1018.8
20260507165008 67 44 3.0 8.0 0.00 0.08 0.00 57 1019.0
20260507164457 67 72 4.0 8.0 0.00 0.08 0.00 58 1019.2
20260507163948 67 22 3.0 8.0 0.00 0.08 0.00 56 1019.2
20260507163437 67 57 4.0 10.0 0.00 0.08 0.00 60 1019.3
20260507162927 65 59 5.0 10.0 0.00 0.08 0.00 59 1019.2
20260507162417 65 23 5.0 8.0 0.00 0.08 0.00 60 1019.2
20260507161908 66 14 4.0 10.0 0.00 0.08 0.00 59 1019.2
20260507161357 65 76 4.0 10.0 0.00 0.08 0.00 62 1019.3
20260507160848 65 355 5.0 10.0 0.00 0.08 0.00 62 1019.2
20260507160337 65 52 6.0 12.0 0.00 0.08 0.00 62 1019.2
20260507155828 64 0 6.0 12.0 0.00 0.08 0.00 63 1019.2
20260507155815 64 3 4.0 9.0 0.00 0.08 0.00 65 1019.0
20260507154808 63 351 3.0 8.0 0.00 0.08 0.00 66 1019.1
20260507154257 63 75 5.0 12.0 0.00 0.08 0.00 66 1019.2
20260507153748 63 17 5.0 12.0 0.00 0.08 0.00 64 1019.2
20260507153237 63 39 5.0 9.0 0.00 0.08 0.00 64 1019.3
20260507153228 63 42 4.0 9.0 0.00 0.08 0.00 65 1019.5
20260507152217 63 11 3.0 8.0 0.00 0.08 0.00 65 1019.6
20260507151710 63 31 4.0 8.0 0.00 0.08 0.00 66 1019.5
20260507151151 62 27 4.0 8.0 0.00 0.09 0.00 67 1019.5
20260507150637 62 14 5.0 8.0 0.00 0.12 0.00 67 1019.6
20260507150622 62 26 4.0 10.0 0.00 0.12 0.00 68 1019.7
20260507150226 62 16 3.0 8.0 0.00 0.12 0.00 68 1019.6
20260507145205 62 348 2.0 9.0 0.00 0.12 0.00 68 1019.7
20260507145109 62 29 4.0 10.0 0.00 0.12 0.00 67 1019.6
20260507145058 62 24 4.0 10.0 0.00 0.12 0.00 71 1019.8
20260507144050 61 27 4.0 10.0 0.00 0.12 0.00 69 1019.8
20260507143041 60 14 4.0 7.0 0.00 0.12 0.00 71 1019.7
20260507142538 60 7 3.0 9.0 0.00 0.12 0.00 73 1019.7
20260507142021 59 39 3.0 9.0 0.00 0.12 0.00 73 1019.7
20260507141505 60 10 3.0 7.0 0.00 0.12 0.00 74 1019.8
20260507141452 59 34 2.0 7.0 0.00 0.12 0.00 75 1019.8
20260507140444 59 46 3.0 7.0 0.00 0.12 0.00 76 1019.8
20260507135931 58 1 3.0 7.0 0.00 0.12 0.00 76 1019.8
20260507135424 58 22 2.0 7.0 0.00 0.12 0.00 77 1019.8
20260507134917 58 35 1.0 5.0 0.00 0.12 0.00 79 1019.9
20260507134411 57 321 2.0 7.0 0.00 0.12 0.00 80 1020.0
20260507133907 57 346 2.0 7.0 0.00 0.12 0.00 81 1020.0
20260507133406 56 16 1.0 4.0 0.00 0.12 0.00 82 1020.0
20260507132900 56 10 0.0 0.0 0.00 0.12 0.00 83 1020.2
20260507132359 55 16 0.0 0.0 0.00 0.12 0.00 84 1020.1
20260507131852 54 16 0.0 0.0 0.00 0.12 0.00 85 1020.2
20260507131346 54 16 0.0 0.0 0.00 0.12 0.00 85 1020.1
20260507130839 54 16 0.0 0.0 0.00 0.12 0.00 85 1020.2
20260507130333 53 18 0.0 0.0 0.00 0.12 0.00 85 1020.1
20260507125828 53 18 0.0 0.0 0.00 0.12 0.00 85 1020.1
20260507125324 53 19 0.0 0.0 0.00 0.12 0.00 85 1020.1
20260507124824 53 20 0.0 0.0 0.00 0.12 0.00 85 1020.1
20260507124322 52 18 0.0 0.0 0.00 0.12 0.00 85 1020.0
20260507124313 52 27 0.0 0.0 0.00 0.12 0.00 84 1020.0
20260507123307 52 31 0.0 0.0 0.00 0.12 0.00 84 1019.9
20260507122800 52 16 0.0 0.0 0.00 0.12 0.00 84 1019.7
20260507122250 52 267 0.0 0.0 0.00 0.12 0.00 84 1019.7
20260507121745 52 20 0.0 0.0 0.00 0.12 0.00 83 1019.7
20260507121236 52 19 0.0 0.0 0.00 0.12 0.00 83 1019.8
20260507120723 52 21 0.0 0.0 0.00 0.12 0.00 83 1019.9
20260507120216 52 13 0.0 0.0 0.00 0.12 0.00 83 1019.7
20260507115708 52 14 0.0 0.0 0.00 0.12 0.00 83 1019.7
20260507115203 52 16 0.0 0.0 0.00 0.12 0.00 83 1020.0
20260507114652 52 18 0.0 0.0 0.00 0.12 0.00 82 1020.0
20260507114140 52 18 0.0 0.0 0.00 0.12 0.00 82 1019.8
20260507114132 52 17 0.0 0.0 0.00 0.12 0.00 82 1019.7
20260507113121 52 20 0.0 2.0 0.00 0.12 0.00 82 1019.5
20260507113111 52 16 0.0 2.0 0.00 0.12 0.00 82 1019.4
20260507112100 52 18 0.0 2.0 0.00 0.12 0.00 82 1019.3
20260507111550 52 17 0.0 2.0 0.00 0.12 0.00 82 1019.2
20260507111041 52 18 0.0 1.0 0.00 0.12 0.00 82 1019.2
20260507110530 52 18 0.0 3.0 0.00 0.12 0.00 82 1019.2
20260507110021 52 16 1.0 3.0 0.00 0.12 0.00 82 1019.2
20260507105510 52 15 1.0 4.0 0.00 0.12 0.00 81 1019.1
20260507105000 53 22 2.0 4.0 0.00 0.12 0.00 81 1019.1
20260507104450 53 37 1.0 4.0 0.00 0.12 0.00 81 1019.0
20260507103940 53 44 1.0 3.0 0.00 0.12 0.00 81 1018.9
20260507103422 53 42 0.0 2.0 0.00 0.12 0.00 81 1018.7
20260507102912 53 40 0.0 2.0 0.00 0.12 0.00 81 1018.5